QPF
0.00 0.00 0.00 0.00 0.00 0.00 0.00 0.00 0.00 0.00 0.00 0.00 0.00 0.00 0.00 0.00 0.00 0.00 0.00 0.00 0.00 0.00 0.00 0.00 0.00 0.00 0.00 0.00 0.00 0.00 0.00 0.00 0.00 0.00 0.00 0.00 0.00 0.00
0.00 0.00 0.00 0.00 0.00 0.00 0.00 0.00 0.00 0.00 0.00 0.00 0.00 0.00 0.00 0.00 0.00 0.00 0.00 0.00 0.00 0.00 0.00 0.00 0.00 0.00 0.00 0.00 0.00 0.00 0.00 0.00 0.00 0.00 0.00 0.00 0.00 0.00
0.00 0.00 0.00 0.00 0.00 0.00 0.00 0.00 0.00 0.00 0.00 0.00 0.00 0.00 0.00 0.00 0.00 0.00 0.00 0.00 0.00 0.00 0.00 0.00 0.00 0.00 0.00 0.00 0.00 0.00 0.00 0.00 0.00 0.00 0.00 0.00 0.00 0.00
0.00 0.00 0.00 0.00 0.00 0.00 0.00 0.00 0.00 0.00 0.00 0.00 0.00 0.00 0.00 0.00 0.00 0.00 0.00 0.00 0.00 0.00 0.00 0.00 0.00 0.00 0.00 0.00 0.00 0.00 0.00 0.00 0.00 0.00 0.00 0.00 0.00 0.00
0.00 0.00 0.00 0.00 0.00 0.00 0.00 0.00 0.00 0.00 0.00 0.00 0.00 0.00 0.00 0.00 0.00 0.00 0.00 0.00 0.00 0.00 0.00 0.00 0.00 0.00 0.00 0.00 0.00 0.00 0.00 0.00 0.00 0.00 0.00 0.00 0.00 0.00
0.00 0.00 0.00 0.00 0.00 0.00 0.00 0.00 0.00 0.00 0.00 0.00 0.00 0.00 0.00 0.00 0.00 0.00 0.00 0.00 0.00 0.00 0.00 0.00 0.00 0.00 0.00 0.00 0.00 0.00 0.00 0.00 0.00 0.00 0.00 0.00 0.00 0.00
0.00 0.00 0.00 0.00 0.00 0.00 0.00 0.00 0.00 0.00 0.00 0.00 0.00 0.00 0.00 0.00 0.00 0.00 0.00 0.00 0.00 0.00 0.00 0.00 0.00 0.00 0.00 0.00 0.00 0.00 0.00 0.00 0.00 0.00 0.00 0.00 0.00 0.00
0.00 0.00 0.00 0.00 0.00 0.00 0.00 0.00 0.00 0.00 0.00 0.00 0.00 0.00 0.00 0.00 0.00 0.00 0.00 0.00 0.00 0.00 0.00 0.00 0.00 0.00 0.00 0.00 0.00 0.00 0.00 0.00 0.00 0.00 0.00 0.00 0.00 0.00
0.00 0.00 0.00 0.00 0.00 0.00 0.00 0.00 0.00 0.00 0.00 0.00 0.00 0.00 0.00 0.00 0.00 0.00 0.00 0.00 0.00 0.00 0.00 0.00 0.00 0.00 0.00 0.00 0.00 0.00 0.00 0.00 0.00 0.00 0.00 0.00 0.00 0.00
0.00 0.00 0.00 0.00 0.00 0.00 0.00 0.00 0.00 0.00 0.00 0.00 0.00 0.00 0.00 0.00 0.00 0.00 0.00 0.00 0.00 0.00 0.01 0.01 0.01 0.00 0.00 0.00 0.00 0.00 0.00 0.00 0.00 0.00 0.00 0.00 0.00 0.00
0.00 0.00 0.00 0.00 0.00 0.00 0.00 0.01 0.01 0.00 0.00 0.00 0.00 0.00 0.00 0.01 0.01 0.01 0.01 0.00 0.00 0.00 0.00 0.00 0.00 0.00 0.00 0.00 0.00 0.00 0.00 0.00 0.00 0.00 0.00 0.00 0.00 0.00
0.00 0.00 0.00 0.00 0.00 0.00 0.00 0.01 0.01 0.00 0.00 0.01 0.02 0.02 0.02 0.03 0.04 0.03 0.02 0.01 0.00 0.00 0.00 0.00 0.00 0.00 0.00 0.00 0.00 0.00 0.00 0.00 0.00 0.00 0.00 0.00 0.00 0.00
0.01 0.00 0.00 0.00 0.01 0.01 0.01 0.01 0.01 0.01 0.01 0.02 0.04 0.05 0.06 0.06 0.06 0.06 0.03 0.01 0.01 0.01 0.00 0.00 0.00 0.00 0.01 0.01 0.01 0.00 0.00 0.00 0.00 0.00 0.00 0.00 0.00 0.00
0.03 0.01 0.01 0.01 0.01 0.02 0.02 0.02 0.02 0.02 0.04 0.05 0.05 0.05 0.05 0.05 0.05 0.04 0.04 0.02 0.02 0.02 0.01 0.01 0.01 0.03 0.03 0.04 0.03 0.01 0.01 0.00 0.00 0.00 0.00 0.00 0.00 0.00
0.01 0.01 0.02 0.02 0.02 0.02 0.02 0.02 0.02 0.04 0.06 0.07 0.05 0.02 0.01 0.02 0.04 0.08 0.12 0.12 0.10 0.08 0.05 0.04 0.04 0.06 0.07 0.06 0.05 0.03 0.01 0.01 0.01 0.00 0.00 0.00 0.00 0.00
0.01 0.01 0.02 0.02 0.03 0.03 0.03 0.03 0.03 0.04 0.06 0.05 0.03 0.02 0.02 0.04 0.07 0.11 0.16 0.18 0.19 0.17 0.13 0.10 0.08 0.09 0.11 0.10 0.07 0.04 0.02 0.02 0.01 0.01 0.00 0.00 0.00 0.00
0.06 0.07 0.05 0.03 0.02 0.02 0.03 0.04 0.04 0.05 0.06 0.05 0.05 0.05 0.05 0.06 0.07 0.09 0.12 0.14 0.15 0.14 0.14 0.15 0.15 0.15 0.15 0.14 0.12 0.09 0.05 0.03 0.02 0.01 0.01 0.01 0.00 0.00
0.08 0.10 0.05 0.03 0.02 0.02 0.02 0.02 0.03 0.05 0.05 0.05 0.06 0.06 0.05 0.05 0.07 0.09 0.11 0.11 0.10 0.12 0.12 0.13 0.15 0.19 0.21 0.19 0.14 0.11 0.09 0.06 0.04 0.02 0.02 0.01 0.01 0.00
0.07 0.05 0.03 0.02 0.02 0.02 0.02 0.03 0.03 0.02 0.03 0.05 0.07 0.07 0.06 0.06 0.07 0.07 0.09 0.09 0.10 0.11 0.13 0.14 0.14 0.14 0.16 0.14 0.12 0.10 0.09 0.08 0.06 0.05 0.03 0.02 0.01 0.01
0.02 0.02 0.02 0.02 0.02 0.02 0.02 0.02 0.02 0.02 0.04 0.06 0.07 0.07 0.07 0.07 0.07 0.06 0.06 0.07 0.09 0.11 0.12 0.12 0.11 0.10 0.09 0.08 0.08 0.09 0.09 0.09 0.08 0.07 0.05 0.03 0.03 0.02
0.02 0.02 0.02 0.03 0.02 0.02 0.02 0.02 0.02 0.02 0.03 0.04 0.07 0.07 0.08 0.08 0.08 0.06 0.06 0.08 0.09 0.09 0.08 0.07 0.07 0.08 0.11 0.13 0.15 0.14 0.14 0.12 0.09 0.07 0.05 0.05 0.05 0.04
0.02 0.03 0.03 0.04 0.04 0.03 0.03 0.03 0.03 0.03 0.03 0.05 0.06 0.07 0.08 0.08 0.08 0.07 0.07 0.09 0.09 0.08 0.07 0.08 0.11 0.13 0.13 0.13 0.12 0.11 0.13 0.13 0.11 0.08 0.06 0.04 0.04 0.03
0.03 0.04 0.04 0.05 0.05 0.05 0.05 0.05 0.05 0.05 0.05 0.06 0.07 0.07 0.07 0.08 0.08 0.08 0.08 0.09 0.10 0.10 0.10 0.11 0.11 0.11 0.11 0.12 0.12 0.12 0.12 0.12 0.10 0.08 0.06 0.04 0.03 0.02
MSLP
1021.32 1021.18 1021.08 1021.00 1020.90 1020.76 1020.58 1020.34 1020.05 1019.74 1019.41 1019.10 1018.83 1018.63 1018.51 1018.47 1018.53 1018.68 1018.90 1019.19 1019.51 1019.86 1020.20 1020.51 1020.80 1021.05 1021.26 1021.44 1021.61 1021.77 1021.94 1022.11 1022.30 1022.48 1022.66 1022.81 1022.94 1023.02
1021.33 1021.11 1020.92 1020.74 1020.56 1020.35 1020.10 1019.82 1019.50 1019.17 1018.84 1018.52 1018.25 1018.04 1017.91 1017.86 1017.90 1018.03 1018.23 1018.51 1018.83 1019.18 1019.53 1019.87 1020.19 1020.47 1020.72 1020.95 1021.15 1021.36 1021.56 1021.78 1022.00 1022.23 1022.44 1022.62 1022.77 1022.88
1021.27 1020.97 1020.69 1020.42 1020.15 1019.86 1019.55 1019.23 1018.89 1018.55 1018.22 1017.92 1017.66 1017.46 1017.33 1017.27 1017.29 1017.40 1017.58 1017.83 1018.13 1018.47 1018.83 1019.18 1019.51 1019.82 1020.10 1020.35 1020.59 1020.83 1021.08 1021.33 1021.59 1021.85 1022.10 1022.32 1022.50 1022.63
1021.09 1020.71 1020.35 1019.99 1019.64 1019.28 1018.91 1018.55 1018.20 1017.86 1017.55 1017.27 1017.04 1016.85 1016.73 1016.67 1016.67 1016.76 1016.91 1017.14 1017.42 1017.74 1018.08 1018.42 1018.76 1019.07 1019.37 1019.64 1019.91 1020.18 1020.45 1020.74 1021.04 1021.34 1021.63 1021.90 1022.12 1022.30
1020.76 1020.32 1019.89 1019.45 1019.02 1018.59 1018.17 1017.78 1017.42 1017.09 1016.79 1016.54 1016.33 1016.17 1016.06 1016.00 1016.01 1016.07 1016.21 1016.40 1016.66 1016.95 1017.27 1017.60 1017.92 1018.23 1018.53 1018.81 1019.09 1019.37 1019.67 1019.99 1020.33 1020.68 1021.03 1021.35 1021.63 1021.87
1020.31 1019.82 1019.31 1018.81 1018.30 1017.82 1017.35 1016.93 1016.55 1016.22 1015.94 1015.71 1015.52 1015.38 1015.28 1015.23 1015.24 1015.30 1015.41 1015.59 1015.82 1016.09 1016.39 1016.69 1017.00 1017.29 1017.58 1017.85 1018.13 1018.43 1018.75 1019.10 1019.49 1019.89 1020.30 1020.70 1021.06 1021.37
1019.78 1019.23 1018.67 1018.10 1017.53 1016.99 1016.48 1016.02 1015.62 1015.28 1015.00 1014.77 1014.59 1014.45 1014.36 1014.31 1014.32 1014.38 1014.49 1014.66 1014.88 1015.14 1015.42 1015.71 1015.99 1016.27 1016.54 1016.80 1017.07 1017.37 1017.71 1018.09 1018.52 1018.99 1019.48 1019.96 1020.41 1020.82
1019.22 1018.61 1017.98 1017.35 1016.73 1016.14 1015.58 1015.09 1014.65 1014.28 1013.97 1013.72 1013.52 1013.37 1013.27 1013.22 1013.23 1013.29 1013.41 1013.59 1013.81 1014.07 1014.35 1014.64 1014.91 1015.18 1015.43 1015.68 1015.95 1016.25 1016.60 1017.01 1017.49 1018.02 1018.59 1019.16 1019.71 1020.22
1018.62 1017.95 1017.27 1016.59 1015.92 1015.28 1014.69 1014.15 1013.66 1013.24 1012.88 1012.58 1012.34 1012.16 1012.03 1011.97 1011.97 1012.03 1012.17 1012.37 1012.62 1012.91 1013.21 1013.51 1013.79 1014.06 1014.30 1014.55 1014.81 1015.11 1015.48 1015.91 1016.43 1017.02 1017.66 1018.32 1018.96 1019.57
1017.98 1017.26 1016.53 1015.81 1015.11 1014.43 1013.79 1013.20 1012.66 1012.18 1011.75 1011.38 1011.07 1010.83 1010.66 1010.56 1010.56 1010.63 1010.79 1011.03 1011.32 1011.66 1012.00 1012.34 1012.65 1012.93 1013.19 1013.44 1013.70 1014.01 1014.38 1014.84 1015.39 1016.01 1016.71 1017.44 1018.16 1018.85
1017.24 1016.47 1015.71 1014.97 1014.25 1013.55 1012.87 1012.24 1011.64 1011.08 1010.57 1010.12 1009.73 1009.42 1009.19 1009.06 1009.04 1009.13 1009.33 1009.61 1009.96 1010.35 1010.76 1011.15 1011.51 1011.83 1012.12 1012.39 1012.66 1012.97 1013.35 1013.81 1014.37 1015.03 1015.75 1016.52 1017.30 1018.05
1016.34 1015.55 1014.78 1014.03 1013.31 1012.59 1011.90 1011.22 1010.57 1009.94 1009.35 1008.81 1008.34 1007.95 1007.67 1007.52 1007.49 1007.59 1007.82 1008.16 1008.58 1009.04 1009.52 1009.99 1010.41 1010.78 1011.11 1011.40 1011.69 1012.01 1012.39 1012.85 1013.41 1014.06 1014.80 1015.59 1016.39 1017.17
1015.26 1014.47 1013.70 1012.97 1012.25 1011.54 1010.83 1010.13 1009.43 1008.74 1008.08 1007.47 1006.92 1006.48 1006.15 1005.97 1005.93 1006.06 1006.32 1006.72 1007.20 1007.75 1008.30 1008.84 1009.33 1009.77 1010.14 1010.47 1010.79 1011.12 1011.50 1011.95 1012.50 1013.13 1013.85 1014.63 1015.43 1016.22
1014.02 1013.23 1012.49 1011.77 1011.07 1010.37 1009.66 1008.93 1008.20 1007.46 1006.75 1006.08 1005.49 1005.00 1004.65 1004.45 1004.43 1004.57 1004.88 1005.33 1005.88 1006.49 1007.12 1007.73 1008.29 1008.78 1009.21 1009.58 1009.93 1010.28 1010.66 1011.10 1011.63 1012.24 1012.93 1013.68 1014.46 1015.24
1012.69 1011.92 1011.19 1010.49 1009.80 1009.10 1008.38 1007.64 1006.87 1006.11 1005.36 1004.66 1004.04 1003.54 1003.19 1003.00 1002.99 1003.17 1003.52 1004.01 1004.61 1005.28 1005.97 1006.64 1007.26 1007.81 1008.29 1008.71 1009.09 1009.46 1009.86 1010.30 1010.81 1011.39 1012.05 1012.76 1013.52 1014.28
1011.39 1010.62 1009.90 1009.19 1008.49 1007.78 1007.03 1006.27 1005.48 1004.70 1003.94 1003.23 1002.61 1002.12 1001.78 1001.62 1001.65 1001.86 1002.24 1002.78 1003.42 1004.13 1004.86 1005.57 1006.24 1006.84 1007.37 1007.84 1008.26 1008.67 1009.08 1009.53 1010.04 1010.61 1011.24 1011.93 1012.65 1013.40
1010.23 1009.46 1008.71 1007.98 1007.23 1006.47 1005.69 1004.89 1004.07 1003.27 1002.50 1001.80 1001.20 1000.74 1000.44 1000.32 1000.39 1000.65 1001.07 1001.63 1002.30 1003.03 1003.79 1004.53 1005.23 1005.88 1006.45 1006.97 1007.45 1007.90 1008.35 1008.83 1009.35 1009.91 1010.53 1011.20 1011.90 1012.63
1009.36 1008.54 1007.74 1006.93 1006.11 1005.28 1004.43 1003.56 1002.70 1001.88 1001.10 1000.42 999.86 999.44 999.19 999.13 999.25 999.54 1000.00 1000.58 1001.27 1002.01 1002.78 1003.54 1004.27 1004.95 1005.57 1006.14 1006.67 1007.18 1007.68 1008.20 1008.75 1009.33 1009.95 1010.61 1011.30 1012.00
1008.81 1007.92 1007.03 1006.13 1005.20 1004.26 1003.31 1002.37 1001.46 1000.60 999.82 999.15 998.62 998.26 998.07 998.06 998.23 998.56 999.05 999.65 1000.34 1001.09 1001.87 1002.63 1003.38 1004.09 1004.75 1005.38 1005.97 1006.54 1007.11 1007.68 1008.27 1008.88 1009.52 1010.17 1010.84 1011.52
1008.58 1007.61 1006.62 1005.59 1004.55 1003.48 1002.42 1001.39 1000.41 999.51 998.71 998.05 997.56 997.24 997.10 997.14 997.36 997.73 998.24 998.86 999.56 1000.31 1001.08 1001.86 1002.62 1003.36 1004.06 1004.74 1005.39 1006.03 1006.66 1007.29 1007.93 1008.57 1009.22 1009.87 1010.53 1011.18
1008.64 1007.58 1006.47 1005.33 1004.16 1002.97 1001.80 1000.67 999.62 998.67 997.86 997.21 996.74 996.45 996.36 996.44 996.70 997.11 997.64 998.27 998.97 999.72 1000.49 1001.27 1002.05 1002.81 1003.55 1004.28 1004.99 1005.68 1006.37 1007.05 1007.73 1008.40 1009.06 1009.71 1010.34 1010.96
1008.90 1007.75 1006.56 1005.31 1004.03 1002.74 1001.48 1000.27 999.16 998.17 997.34 996.68 996.23 995.97 995.91 996.03 996.31 996.74 997.28 997.92 998.63 999.38 1000.15 1000.93 1001.72 1002.50 1003.27 1004.03 1004.78 1005.52 1006.25 1006.97 1007.67 1008.36 1009.02 1009.65 1010.26 1010.84
1009.27 1008.08 1006.82 1005.50 1004.15 1002.79 1001.46 1000.20 999.05 998.03 997.19 996.53 996.09 995.85 995.81 995.95 996.25 996.69 997.25 997.88 998.59 999.33 1000.10 1000.88 1001.66 1002.45 1003.23 1004.01 1004.79 1005.55 1006.31 1007.04 1007.75 1008.44 1009.09 1009.70 1010.28 1010.81
Thickness
5473 5476 5479 5483 5484 5486 5489 5490 5494 5505 5519 5519 5521 5526 5527 5528 5528 5528 5529 5529 5529 5528 5528 5528 5528 5528 5528 5528 5529 5530 5531 5531 5531 5532 5532 5533 5534 5536
5451 5455 5459 5462 5465 5468 5470 5473 5477 5484 5501 5511 5511 5514 5515 5517 5517 5517 5519 5518 5517 5517 5517 5517 5517 5518 5518 5518 5519 5520 5521 5522 5522 5522 5522 5522 5523 5525
5430 5434 5439 5442 5446 5449 5451 5454 5458 5462 5478 5494 5493 5497 5498 5501 5502 5504 5505 5505 5506 5506 5506 5506 5506 5507 5508 5508 5509 5509 5510 5511 5511 5512 5512 5512 5512 5514
5407 5411 5417 5421 5426 5430 5433 5436 5441 5444 5452 5468 5474 5476 5481 5486 5488 5489 5492 5493 5494 5494 5494 5494 5495 5496 5497 5499 5499 5499 5500 5500 5500 5500 5501 5501 5502 5502
5382 5388 5394 5398 5405 5409 5414 5419 5423 5428 5433 5444 5456 5458 5463 5466 5469 5473 5477 5478 5478 5478 5479 5482 5484 5485 5486 5488 5489 5489 5489 5489 5489 5489 5488 5489 5490 5490
5358 5365 5371 5376 5382 5387 5393 5399 5404 5409 5415 5423 5435 5439 5442 5446 5450 5459 5460 5463 5464 5463 5465 5469 5471 5471 5474 5476 5478 5479 5478 5478 5477 5477 5476 5476 5477 5477
5335 5342 5349 5355 5361 5365 5371 5378 5382 5388 5395 5404 5414 5419 5426 5428 5437 5444 5446 5447 5447 5448 5449 5454 5456 5458 5462 5465 5467 5468 5468 5467 5466 5466 5465 5464 5464 5465
5310 5319 5325 5332 5340 5344 5350 5357 5362 5367 5375 5383 5395 5405 5416 5418 5419 5423 5426 5426 5434 5440 5432 5436 5438 5446 5452 5454 5457 5456 5456 5455 5455 5454 5454 5453 5452 5452
5280 5289 5299 5308 5314 5320 5326 5332 5339 5347 5358 5366 5376 5392 5399 5402 5401 5404 5408 5416 5426 5425 5416 5422 5425 5435 5441 5442 5442 5443 5444 5445 5445 5444 5443 5442 5441 5440
5252 5258 5267 5279 5287 5291 5296 5303 5313 5325 5337 5344 5357 5375 5377 5379 5383 5390 5393 5397 5404 5407 5410 5414 5422 5427 5429 5429 5430 5431 5432 5434 5435 5434 5432 5431 5429 5427
5227 5232 5238 5248 5259 5261 5263 5274 5289 5303 5313 5319 5330 5344 5354 5359 5361 5364 5370 5375 5388 5395 5397 5400 5410 5412 5412 5416 5416 5415 5417 5420 5422 5423 5422 5420 5418 5415
5205 5209 5214 5220 5229 5232 5235 5244 5258 5279 5287 5293 5301 5315 5328 5336 5341 5347 5355 5360 5372 5380 5385 5385 5390 5389 5391 5400 5401 5400 5402 5406 5408 5410 5410 5408 5405 5403
5183 5188 5192 5195 5201 5207 5212 5220 5236 5250 5257 5265 5276 5288 5300 5311 5321 5329 5338 5345 5355 5366 5372 5369 5371 5371 5376 5378 5383 5386 5387 5391 5394 5395 5396 5396 5393 5392
5165 5168 5171 5174 5178 5184 5189 5198 5209 5220 5231 5243 5254 5268 5281 5292 5302 5309 5315 5323 5333 5344 5347 5349 5353 5356 5356 5355 5360 5368 5369 5373 5377 5380 5382 5381 5379 5378
5151 5154 5157 5160 5163 5167 5172 5178 5184 5193 5207 5222 5237 5252 5265 5274 5279 5283 5288 5295 5305 5314 5322 5330 5337 5339 5340 5342 5344 5346 5349 5352 5358 5362 5363 5365 5368 5366
5144 5146 5147 5147 5148 5152 5155 5159 5165 5176 5188 5203 5218 5231 5241 5249 5257 5263 5268 5274 5280 5290 5298 5306 5315 5319 5322 5325 5326 5327 5333 5337 5341 5343 5343 5344 5347 5350
5143 5144 5141 5138 5137 5137 5139 5144 5151 5160 5174 5188 5201 5211 5220 5229 5238 5246 5250 5254 5259 5267 5272 5280 5287 5294 5299 5303 5306 5311 5313 5318 5322 5322 5320 5322 5326 5330
5136 5136 5134 5131 5129 5129 5130 5134 5140 5149 5160 5173 5186 5196 5203 5211 5220 5227 5232 5237 5243 5249 5251 5255 5260 5262 5265 5272 5286 5293 5295 5298 5301 5301 5301 5302 5305 5309
5122 5119 5117 5118 5118 5119 5122 5125 5131 5139 5148 5158 5171 5182 5190 5197 5203 5210 5216 5221 5226 5230 5233 5235 5240 5245 5250 5257 5260 5268 5275 5278 5279 5280 5282 5285 5289 5290
5104 5103 5103 5105 5107 5111 5114 5118 5124 5131 5139 5148 5160 5171 5178 5186 5192 5197 5202 5206 5210 5211 5213 5216 5223 5231 5239 5244 5242 5243 5252 5258 5261 5263 5262 5261 5263 5264
5094 5094 5094 5096 5100 5105 5110 5115 5120 5126 5134 5141 5151 5162 5171 5177 5183 5186 5188 5189 5191 5194 5197 5202 5208 5210 5212 5214 5216 5222 5229 5234 5240 5244 5245 5242 5240 5240
5086 5087 5089 5092 5097 5103 5108 5115 5120 5126 5132 5139 5147 5155 5162 5168 5172 5174 5175 5176 5177 5179 5181 5182 5183 5186 5191 5197 5201 5202 5206 5210 5214 5219 5221 5224 5226 5225
5078 5080 5083 5087 5092 5099 5105 5113 5119 5125 5130 5137 5143 5148 5152 5156 5158 5160 5160 5161 5161 5161 5161 5162 5164 5168 5172 5178 5181 5183 5185 5188 5192 5194 5195 5198 5201 5203